Location: Kellogg
(38.0159°N, 90.0546°W)
Time: 07:13:05
(UTC+00:00)

Hubble Space Telescope - Pass Details

Date: 16 August 2024
Orbit: 505 x 509 km, 28.5° (Epoch: 19 September)

Event Time Altitude Azimuth Distance (km) Brightness Sun altitude
Exits shadow 10:02:33 18° 200° (SSW) 1,290 2.3 -14.2°
Maximum altitude 10:03:39 20° 177° (S) 1,206 2.3 -14.0°
Drops below altitude 10° 10:06:36 10° 129° (SE) 1,714 3.6 -13.5°
Sets 10:09:15 0° 112° (ESE) 2,601 4.9 -13.0°
